Weather Roundup
Issued by NWS Chicago, IL

Home | Current Version | Previous Version | Graphics & Text | Print | Product List | Glossary On
Versions: 1 2 3 4 5 6 7 8 9 10 11 12 13 14 15 16 17 18 19 20 21 22 23 24 25 26 27 28 29 30 31 32 33 34 35 36 37 38 39 40 41 42 43 44 45 46 47 48 49 50
000
NZUS59 KLOT 162306
HRRLOT

CHICAGO AREA WEATHER ROUNDUP
NATIONAL WEATHER SERVICE CHICAGO/ROMEOVILLE IL
600 PM CDT TUE SEP 16 2014

NOTE: "FAIR" INDICATES FEW OR NO CLOUDS BELOW 12,000 FEET WITH NO
SIGNIFICANT WEATHER AND/OR OBSTRUCTIONS TO VISIBILITY.

* THESE STATIONS ARE NOT UNDER NWS QUALITY CONTROL. THEY ALSO MAY NOT
  REPORT WEATHER SUCH AS PRECIPITATION OR FOG.

ILZ005-006-012>014-019>023-170000-
NORTHEAST ILLINOIS

CITY           SKY/WX    TMP DP  RH WIND       PRES   REMARKS
OHARE          SUNNY     68  40  35 W9        30.09F
MIDWAY         MOSUNNY   67  40  37 NW10      30.09F
AURORA         SUNNY     65  41  41 NW3       30.10F
LANSING*       CLEAR     64  44  48 W5        30.11S
JOLIET*        SUNNY     65  41  41 CALM      30.11S
WAUKEGAN       SUNNY     59  44  57 E7        30.10S
DUPAGE AIRPORT SUNNY     65  42  43 W7        30.09F
WHEELING       SUNNY     63  46  54 E8        30.12S
KANKAKEE*      SUNNY     65  46  49 CALM      30.11S
MORRIS*        SUNNY     66  46  47 CALM      30.10S
LEWIS AIRPORT* SUNNY     64  44  46 W3        30.10F
NORTHERLY IS     N/A     61  50  67 E6          N/A
$$

WIZ051-052-058>065-066-070>072-170000-
SOUTHEAST WISCONSIN

CITY           SKY/WX    TMP DP  RH WIND       PRES   REMARKS
MILWAUKEE      MOSUNNY   59  42  53 SE10      30.10S
KENOSHA*       SUNNY     60  46  59 E6        30.11S
RACINE*        SUNNY     59  43  55 SE8       30.12F
BURLINGTON     SUNNY     61  41  48 W3        30.10S
WAUKESHA       SUNNY     61  39  44 W7        30.11F
WEST BEND      SUNNY     61  37  41 W5        30.09S
$$

INZ001>003-010>013-019-020-170000-
NORTHWEST INDIANA

CITY           SKY/WX    TMP DP  RH WIND       PRES   REMARKS
GARY*          NOT AVBL
MICHIGAN CITY* NOT AVBL
RENSSELAER*    NOT AVBL
VALPARAISO     CLEAR     63  46  54 W5        30.11S
$$

LMZ740>746-170000-
SOUTHERN LAKE MICHIGAN

STATION/POSITION TIME  SKY/WX   TEMP WIND        PRES    VSBY
                                AIR  DIR/SP/G
                 (UTC)          (F)  (DEG/KT/KT) (MB)    (MI)
HARRISON CRIB    2300            60   80/  8/  9   N/A
BURNHAM HARBOR   2300            61   60/  6/  7   N/A
CALUMET HARBOR   2300            61   50/  6/  7 1018.1S
BURNS HARBOR     NOT AVBL
MICHIGAN CITY    2300            60   40/  6/  7   N/A
$$

ABBREVIATIONS USED IN REMARKS
   TC - TEMPERATURE IN CELSIUS
  WCI - WIND CHILL INDEX
   HX - HEAT INDEX
  VSB - VISIBILITY
$$



USA.gov is the U.S. government's official web portal to all federal, state and local government web resources and services.